Time,TemperatureF,DewpointF,PressureIn,WindDirection,WindDirectionDegrees,WindSpeedMPH,WindSpeedGustMPH,Humidity,HourlyPrecipIn,Conditions,Clouds,dailyrainin,SolarRadiationWatts/m^2,SoftwareType,DateUTC
2013-08-10 00:02:00,54.0,52.0,-100.00,NW,310,5.0,9.0,93,0.00,,,0.03,0.000000,,2013-08-10 05:02:00,
2013-08-10 00:11:00,54.0,52.0,-100.00,NW,310,5.0,9.0,93,0.00,,,0.03,0.000000,,2013-08-10 05:11:00,
2013-08-10 00:32:00,53.0,52.0,-100.00,WNW,300,5.0,7.0,96,0.00,,,0.03,1.000000,,2013-08-10 05:32:00,
2013-08-10 00:43:00,53.0,52.0,-100.00,WNW,300,5.0,7.0,96,0.00,,,0.03,1.000000,,2013-08-10 05:43:00,
2013-08-10 00:52:00,53.0,52.0,-100.00,WNW,300,5.0,7.0,96,0.00,,,0.03,1.000000,,2013-08-10 05:52:00,
2013-08-10 01:02:00,53.0,52.0,-100.00,WNW,300,5.0,7.0,96,0.00,,,0.03,1.000000,,2013-08-10 06:02:00,
2013-08-10 01:11:00,53.0,52.0,-100.00,WNW,300,5.0,7.0,96,0.00,,,0.03,1.000000,,2013-08-10 06:11:00,
2013-08-10 01:32:00,53.0,52.0,-100.00,WNW,295,5.0,8.0,98,0.00,,,0.03,0.000000,,2013-08-10 06:32:00,
2013-08-10 01:44:00,53.0,52.0,-100.00,WNW,295,5.0,8.0,98,0.00,,,0.03,0.000000,,2013-08-10 06:44:00,
2013-08-10 01:53:00,53.0,52.0,-100.00,WNW,295,5.0,8.0,98,0.00,,,0.03,0.000000,,2013-08-10 06:53:00,
2013-08-10 02:02:00,53.0,52.0,-100.00,WNW,295,5.0,8.0,98,0.00,,,0.03,0.000000,,2013-08-10 07:02:00,
2013-08-10 02:12:00,53.0,52.0,-100.00,WNW,295,5.0,8.0,98,0.00,,,0.03,0.000000,,2013-08-10 07:12:00,
2013-08-10 02:33:00,52.0,52.0,-100.00,WNW,299,5.0,7.0,99,0.00,,,0.03,1.000000,,2013-08-10 07:33:00,
2013-08-10 02:43:00,52.0,52.0,-100.00,WNW,299,5.0,7.0,99,0.00,,,0.03,1.000000,,2013-08-10 07:43:00,
2013-08-10 02:52:00,52.0,52.0,-100.00,WNW,299,5.0,7.0,99,0.00,,,0.03,1.000000,,2013-08-10 07:52:00,
2013-08-10 03:01:00,52.0,52.0,-100.00,WNW,299,5.0,7.0,99,0.00,,,0.03,1.000000,,2013-08-10 08:01:00,
2013-08-10 03:12:00,52.0,52.0,-100.00,WNW,299,5.0,7.0,99,0.00,,,0.03,1.000000,,2013-08-10 08:12:00,
2013-08-10 03:32:00,52.0,52.0,-100.00,NW,304,4.0,7.0,100,0.00,,,0.03,1.000000,,2013-08-10 08:32:00,
2013-08-10 03:43:00,52.0,52.0,-100.00,NW,304,4.0,7.0,100,0.00,,,0.03,1.000000,,2013-08-10 08:43:00,
2013-08-10 03:53:00,52.0,52.0,-100.00,NW,304,4.0,7.0,100,0.00,,,0.03,1.000000,,2013-08-10 08:53:00,
2013-08-10 04:02:00,52.0,52.0,-100.00,NW,304,4.0,7.0,100,0.00,,,0.03,1.000000,,2013-08-10 09:02:00,
2013-08-10 04:12:00,52.0,52.0,-100.00,NW,304,4.0,7.0,100,0.00,,,0.03,1.000000,,2013-08-10 09:12:00,
2013-08-10 04:32:00,52.0,52.0,-100.00,NW,317,5.0,7.0,100,0.00,,,0.03,0.000000,,2013-08-10 09:32:00,
2013-08-10 04:43:00,52.0,52.0,-100.00,NW,317,5.0,7.0,100,0.00,,,0.03,0.000000,,2013-08-10 09:43:00,
2013-08-10 04:52:00,52.0,52.0,-100.00,NW,317,5.0,7.0,100,0.00,,,0.03,0.000000,,2013-08-10 09:52:00,
2013-08-10 08:43:00,58.0,56.0,-100.00,WNW,293,2.0,5.0,94,-99.99,,,0.03,199.000000,,2013-08-10 13:43:00,
2013-08-10 08:52:00,58.0,56.0,-100.00,WNW,293,2.0,5.0,94,-99.99,,,0.03,199.000000,,2013-08-10 13:52:00,
2013-08-10 09:02:00,58.0,56.0,-100.00,WNW,293,2.0,5.0,94,-99.99,,,0.03,199.000000,,2013-08-10 14:02:00,
2013-08-10 09:12:00,58.0,56.0,-100.00,WNW,293,2.0,5.0,94,-99.99,,,0.03,199.000000,,2013-08-10 14:12:00,
2013-08-10 09:33:00,62.0,56.0,-100.00,WNW,293,4.0,7.0,81,0.00,,,0.03,423.000000,,2013-08-10 14:33:00,
2013-08-10 09:43:00,62.0,56.0,-100.00,WNW,293,4.0,7.0,81,0.00,,,0.03,423.000000,,2013-08-10 14:43:00,
2013-08-10 09:53:00,62.0,56.0,-100.00,WNW,293,4.0,7.0,81,0.00,,,0.03,423.000000,,2013-08-10 14:53:00,
2013-08-10 10:02:00,62.0,56.0,-100.00,WNW,293,4.0,7.0,81,0.00,,,0.03,423.000000,,2013-08-10 15:02:00,
2013-08-10 10:12:00,62.0,56.0,-100.00,WNW,293,4.0,7.0,81,0.00,,,0.03,423.000000,,2013-08-10 15:12:00,
2013-08-10 10:43:00,62.0,54.0,-100.00,NW,323,5.0,11.0,76,0.00,,,0.03,428.000000,,2013-08-10 15:43:00,
2013-08-10 10:52:00,62.0,54.0,-100.00,NW,323,5.0,11.0,76,0.00,,,0.03,428.000000,,2013-08-10 15:52:00,
2013-08-10 11:01:00,62.0,54.0,-100.00,NW,323,5.0,11.0,76,0.00,,,0.03,428.000000,,2013-08-10 16:01:00,
2013-08-10 11:11:00,62.0,54.0,-100.00,NW,323,5.0,11.0,76,0.00,,,0.03,428.000000,,2013-08-10 16:11:00,
2013-08-10 11:32:00,65.0,53.0,-100.00,NW,316,7.0,12.0,66,0.00,,,0.03,546.000000,,2013-08-10 16:32:00,
2013-08-10 11:43:00,65.0,53.0,-100.00,NW,316,7.0,12.0,66,0.00,,,0.03,546.000000,,2013-08-10 16:43:00,
2013-08-10 11:53:00,65.0,53.0,-100.00,NW,316,7.0,12.0,66,0.00,,,0.03,546.000000,,2013-08-10 16:53:00,
2013-08-10 12:02:00,65.0,53.0,-100.00,NW,316,7.0,12.0,66,0.00,,,0.03,546.000000,,2013-08-10 17:02:00,
2013-08-10 12:12:00,65.0,53.0,-100.00,NW,316,7.0,12.0,66,0.00,,,0.03,546.000000,,2013-08-10 17:12:00,
2013-08-10 12:33:00,68.0,51.0,-100.00,WNW,300,7.0,13.0,54,0.00,,,0.03,824.000000,,2013-08-10 17:33:00,
2013-08-10 12:43:00,68.0,51.0,-100.00,WNW,300,7.0,13.0,54,0.00,,,0.03,824.000000,,2013-08-10 17:43:00,
2013-08-10 12:52:00,68.0,51.0,-100.00,WNW,300,7.0,13.0,54,0.00,,,0.03,824.000000,,2013-08-10 17:52:00,
2013-08-10 13:01:00,68.0,51.0,-100.00,WNW,300,7.0,13.0,54,0.00,,,0.03,824.000000,,2013-08-10 18:01:00,
2013-08-10 13:11:00,68.0,51.0,-100.00,WNW,300,7.0,13.0,54,0.00,,,0.03,824.000000,,2013-08-10 18:11:00,
2013-08-10 13:32:00,71.0,50.0,-100.00,NW,305,6.0,15.0,48,0.00,,,0.02,856.000000,,2013-08-10 18:32:00,
2013-08-10 13:44:00,71.0,50.0,-100.00,NW,305,6.0,15.0,48,0.00,,,0.02,856.000000,,2013-08-10 18:44:00,
2013-08-10 13:52:00,71.0,50.0,-100.00,NW,305,6.0,15.0,48,0.00,,,0.02,856.000000,,2013-08-10 18:52:00,
2013-08-10 14:02:00,71.0,50.0,-100.00,NW,305,6.0,15.0,48,0.00,,,0.02,856.000000,,2013-08-10 19:02:00,
2013-08-10 14:11:00,71.0,50.0,-100.00,NW,305,6.0,15.0,48,0.00,,,0.02,856.000000,,2013-08-10 19:11:00,
2013-08-10 14:33:00,70.0,50.0,-100.00,NW,318,6.0,14.0,49,0.00,,,0.02,780.000000,,2013-08-10 19:33:00,
2013-08-10 14:44:00,70.0,50.0,-100.00,NW,318,6.0,14.0,49,0.00,,,0.02,780.000000,,2013-08-10 19:44:00,
2013-08-10 14:53:00,70.0,50.0,-100.00,NW,318,6.0,14.0,49,0.00,,,0.02,780.000000,,2013-08-10 19:53:00,
2013-08-10 15:02:00,70.0,50.0,-100.00,NW,318,6.0,14.0,49,0.00,,,0.02,780.000000,,2013-08-10 20:02:00,
2013-08-10 15:12:00,70.0,50.0,-100.00,NW,318,6.0,14.0,49,0.00,,,0.02,780.000000,,2013-08-10 20:12:00,
2013-08-10 15:33:00,72.0,49.0,-100.00,NW,321,7.0,14.0,45,0.00,,,0.00,828.000000,,2013-08-10 20:33:00,
2013-08-10 15:43:00,72.0,49.0,-100.00,NW,321,7.0,14.0,45,0.00,,,0.00,828.000000,,2013-08-10 20:43:00,
2013-08-10 15:53:00,72.0,49.0,-100.00,NW,321,7.0,14.0,45,0.00,,,0.00,828.000000,,2013-08-10 20:53:00,
2013-08-10 16:02:00,72.0,49.0,-100.00,NW,321,7.0,14.0,45,0.00,,,0.00,828.000000,,2013-08-10 21:02:00,
2013-08-10 16:12:00,72.0,49.0,-100.00,NW,321,7.0,14.0,45,0.00,,,0.00,828.000000,,2013-08-10 21:12:00,
2013-08-10 16:32:00,73.0,49.0,-100.00,NW,305,6.0,12.0,43,0.00,,,0.00,634.000000,,2013-08-10 21:32:00,
2013-08-10 16:42:00,73.0,49.0,-100.00,NW,305,6.0,12.0,43,0.00,,,0.00,634.000000,,2013-08-10 21:42:00,
2013-08-10 16:52:00,73.0,49.0,-100.00,NW,305,6.0,12.0,43,0.00,,,0.00,634.000000,,2013-08-10 21:52:00,
2013-08-10 17:01:00,73.0,49.0,-100.00,NW,305,6.0,12.0,43,0.00,,,0.00,634.000000,,2013-08-10 22:01:00,
2013-08-10 17:11:00,73.0,49.0,-100.00,NW,305,6.0,12.0,43,0.00,,,0.00,634.000000,,2013-08-10 22:11:00,
2013-08-10 17:32:00,72.0,49.0,-100.00,NW,308,5.0,10.0,44,0.00,,,0.00,571.000000,,2013-08-10 22:32:00,
2013-08-10 17:43:00,72.0,49.0,-100.00,NW,308,5.0,10.0,44,0.00,,,0.00,571.000000,,2013-08-10 22:43:00,
2013-08-10 17:52:00,72.0,49.0,-100.00,NW,308,5.0,10.0,44,0.00,,,0.00,571.000000,,2013-08-10 22:52:00,
2013-08-10 18:01:00,72.0,49.0,-100.00,NW,308,5.0,10.0,44,0.00,,,0.00,571.000000,,2013-08-10 23:01:00,
2013-08-10 18:12:00,72.0,49.0,-100.00,NW,308,5.0,10.0,44,0.00,,,0.00,571.000000,,2013-08-10 23:12:00,
2013-08-10 18:33:00,71.0,49.0,-100.00,WNW,298,6.0,12.0,45,0.00,,,0.00,350.000000,,2013-08-10 23:33:00,
2013-08-10 18:43:00,71.0,49.0,-100.00,WNW,298,6.0,12.0,45,0.00,,,0.00,350.000000,,2013-08-10 23:43:00,
2013-08-10 18:53:00,71.0,49.0,-100.00,WNW,298,6.0,12.0,45,0.00,,,0.00,350.000000,,2013-08-10 23:53:00,
2013-08-10 19:02:00,71.0,49.0,-100.00,WNW,298,6.0,12.0,45,0.00,,,0.00,350.000000,,2013-08-11 00:02:00,
2013-08-10 19:11:00,71.0,49.0,-100.00,WNW,298,6.0,12.0,45,0.00,,,0.00,350.000000,,2013-08-11 00:11:00,
2013-08-10 19:32:00,69.0,49.0,-100.00,WNW,291,4.0,12.0,49,0.00,,,0.00,183.000000,,2013-08-11 00:32:00,
2013-08-10 19:42:00,69.0,49.0,-100.00,WNW,291,4.0,12.0,49,0.00,,,0.00,183.000000,,2013-08-11 00:42:00,
2013-08-10 19:52:00,69.0,49.0,-100.00,WNW,291,4.0,12.0,49,0.00,,,0.00,183.000000,,2013-08-11 00:52:00,
2013-08-10 20:01:00,69.0,49.0,-100.00,WNW,291,4.0,12.0,49,0.00,,,0.00,183.000000,,2013-08-11 01:01:00,
2013-08-10 20:11:00,69.0,49.0,-100.00,WNW,291,4.0,12.0,49,0.00,,,0.00,183.000000,,2013-08-11 01:11:00,
2013-08-10 20:32:00,63.0,49.0,-100.00,WNW,286,3.0,8.0,61,0.00,,,0.00,31.000000,,2013-08-11 01:32:00,
2013-08-10 20:43:00,63.0,49.0,-100.00,WNW,286,3.0,8.0,61,0.00,,,0.00,31.000000,,2013-08-11 01:43:00,
2013-08-10 20:54:00,63.0,49.0,-100.00,WNW,286,3.0,8.0,61,0.00,,,0.00,31.000000,,2013-08-11 01:54:00,
2013-08-10 21:02:00,63.0,49.0,-100.00,WNW,286,3.0,8.0,61,0.00,,,0.00,31.000000,,2013-08-11 02:02:00,
2013-08-10 21:11:00,63.0,49.0,-100.00,WNW,286,3.0,8.0,61,0.00,,,0.00,31.000000,,2013-08-11 02:11:00,
2013-08-10 21:32:00,60.0,49.0,-100.00,WNW,290,4.0,6.0,66,0.00,,,0.00,3.000000,,2013-08-11 02:32:00,
2013-08-10 21:43:00,60.0,49.0,-100.00,WNW,290,4.0,6.0,66,0.00,,,0.00,3.000000,,2013-08-11 02:43:00,
2013-08-10 21:57:00,60.0,49.0,-100.00,WNW,290,4.0,6.0,66,0.00,,,0.00,3.000000,,2013-08-11 02:57:00,
2013-08-10 22:05:00,60.0,49.0,-100.00,WNW,290,4.0,6.0,66,0.00,,,0.00,3.000000,,2013-08-11 03:05:00,
2013-08-10 22:36:00,60.0,48.0,-100.00,WSW,252,2.0,6.0,64,0.00,,,0.00,1.000000,,2013-08-11 03:36:00,